Wind_Speed
67 64 62 62 63 61 59 58 57 55 52 52 52 50 48 49 48 46 45 46 45 42 40 39 37 35 33 30 29 28 26 27 30 33 34 33 32 32 31 30 29 27 25 24 25 25 24 23 24 26 29 29 28 27 26 25 26 28 27 25 25 27 28 30 30 28 28 28 27 25 24 23 22 20 19 19 21 22 22 21 19 18 18 17 17
67 65 65 66 66 64 63 62 60 59 58 57 54 51 50 49 48 46 47 46 43 42 43 40 38 36 33 30 30 30 30 30 31 33 35 34 33 34 34 33 32 30 26 25 26 26 24 24 24 24 24 26 27 27 27 28 29 30 29 28 28 29 30 32 32 30 29 27 25 23 22 22 23 22 21 20 21 22 23 21 20 19 18 18 17
68 68 67 67 67 65 63 62 61 60 60 58 56 53 52 50 49 49 50 48 44 44 45 43 41 38 34 32 31 31 30 30 31 33 35 35 33 34 36 36 35 33 28 26 28 28 27 26 25 23 22 23 25 27 28 29 30 30 31 30 31 31 31 31 33 33 31 29 25 23 23 24 25 26 24 22 22 22 22 22 20 20 19 18 18
69 68 66 65 65 64 63 63 61 60 59 57 56 54 52 51 52 52 51 48 46 46 46 45 44 41 38 34 33 31 29 28 30 33 34 35 34 34 37 37 36 33 28 27 29 30 31 30 27 24 23 24 26 28 29 30 30 31 33 33 33 33 33 33 34 34 33 32 30 28 27 27 28 29 26 23 23 22 22 22 21 20 20 19 19
66 65 64 64 64 63 62 60 58 57 56 56 55 54 52 52 53 53 51 49 47 47 47 46 45 43 40 36 35 34 30 28 29 32 34 35 34 34 37 38 37 35 31 30 29 30 32 31 29 28 27 26 27 29 31 31 32 33 34 35 35 35 35 36 37 36 34 34 34 33 31 30 30 31 29 26 24 24 23 23 21 20 19 19 20
63 61 61 61 60 59 56 54 52 52 53 54 53 52 52 52 51 51 50 49 48 48 48 48 45 41 38 37 38 37 34 31 29 32 34 35 36 36 37 37 37 38 35 33 32 30 30 31 31 31 29 27 28 31 33 34 34 35 36 37 38 38 38 39 39 39 37 35 35 35 32 30 30 31 29 27 25 24 25 24 22 21 20 19 20
59 58 57 56 55 54 53 51 49 47 47 49 50 51 51 50 50 49 49 48 48 49 49 48 45 41 38 37 38 38 34 32 30 32 34 35 37 38 37 37 38 40 39 36 34 32 30 31 33 32 30 27 28 31 36 38 37 36 38 37 37 39 40 41 41 41 41 39 38 37 35 33 32 32 30 28 26 25 25 25 24 23 21 20 20
57 56 56 54 52 51 50 48 47 45 43 45 47 49 49 49 50 49 47 48 49 50 50 49 48 44 39 35 34 34 33 31 30 32 34 36 38 39 39 38 38 41 43 40 38 35 33 32 32 31 30 28 26 28 33 38 39 38 38 37 35 36 38 40 40 41 41 42 41 40 39 38 36 34 33 32 30 28 27 27 27 25 24 22 22
54 55 55 52 49 48 47 45 45 45 44 43 45 47 48 49 50 49 49 49 50 52 52 51 50 45 38 32 31 31 32 30 30 31 33 35 38 40 40 39 39 41 43 43 41 38 36 34 33 31 30 29 25 25 29 34 38 39 39 36 33 32 34 36 37 38 40 41 42 42 41 40 38 35 34 34 34 33 31 30 30 29 28 27 25
53 54 53 50 49 48 46 44 44 45 45 45 46 46 48 49 51 52 52 51 51 52 49 46 45 42 35 31 31 31 31 30 29 31 32 35 38 40 40 40 40 41 43 43 41 39 37 36 35 32 30 27 24 23 25 29 34 38 39 36 32 30 31 32 34 36 38 39 40 40 40 39 37 35 34 33 33 34 34 33 33 32 31 31 30
51 54 54 52 50 49 47 46 46 47 47 46 45 45 44 46 50 52 51 50 51 50 45 41 40 37 32 31 33 32 31 30 30 31 32 34 37 39 39 40 40 41 44 44 41 39 37 37 36 33 29 25 22 21 23 27 31 36 40 38 34 31 30 30 32 34 36 38 38 38 38 38 36 35 34 32 32 32 32 33 32 31 29 29 30
49 52 54 54 53 52 50 48 46 46 47 46 46 47 46 45 46 47 46 48 50 49 46 43 38 32 29 31 32 32 31 30 30 31 32 34 36 37 37 39 39 41 45 46 44 41 38 39 38 36 31 24 20 21 25 30 32 35 41 41 39 36 34 32 31 32 34 35 35 36 36 37 36 36 35 35 34 32 31 31 31 29 26 25 27
46 48 51 55 57 58 57 55 51 49 48 49 50 51 51 49 44 41 42 45 47 47 45 41 35 30 28 29 29 28 27 27 29 31 34 36 36 37 37 38 38 40 44 47 47 45 42 43 42 40 33 24 21 25 29 32 31 33 39 39 38 37 35 33 30 29 29 30 31 32 33 34 35 35 36 36 36 36 34 33 32 29 26 24 24
44 45 47 51 54 57 59 60 60 59 57 57 57 56 55 53 47 40 39 42 44 44 41 36 33 31 29 28 27 25 25 26 28 29 32 35 37 38 37 37 38 39 42 44 46 47 45 45 45 42 34 25 25 30 32 32 29 30 33 33 33 33 31 29 26 25 25 25 26 27 28 30 31 32 33 34 35 36 36 35 35 33 29 27 25
41 42 43 45 48 52 54 56 58 60 60 59 59 58 55 54 50 43 40 40 40 38 35 33 34 33 31 30 28 27 28 28 28 29 31 33 35 37 36 35 36 38 39 40 42 44 45 46 46 44 37 29 29 35 35 31 27 27 29 29 30 30 29 27 26 24 23 23 23 23 24 26 27 28 29 30 31 32 33 33 34 34 32 31 29
38 38 39 40 43 45 47 49 51 52 53 53 52 52 51 51 49 47 46 43 39 35 32 33 35 35 34 33 31 30 30 31 31 31 31 32 34 36 36 35 36 37 39 39 39 41 44 47 47 45 41 35 32 36 37 34 28 26 27 27 28 29 29 28 27 26 25 24 24 23 22 23 24 25 26 27 28 30 30 31 31 32 33 33 33
34 34 35 36 37 39 41 42 44 45 46 46 46 46 47 47 46 47 47 46 42 37 35 35 36 37 37 35 35 34 34 34 33 33 33 32 34 36 36 36 37 38 39 39 39 41 43 47 48 47 44 39 36 36 38 37 33 29 28 27 27 28 28 28 28 28 27 27 27 26 24 23 22 23 23 24 26 27 28 28 29 30 32 34 35
32 32 32 32 33 35 36 37 39 40 41 41 42 42 43 44 45 46 46 46 44 41 39 38 37 37 37 38 38 37 37 35 34 35 35 34 34 35 37 38 39 39 40 40 40 42 43 46 49 49 46 42 39 38 38 37 35 32 31 29 28 28 27 28 28 28 28 29 29 29 28 26 25 24 23 23 24 25 27 28 28 29 30 31 34
31 31 30 31 32 33 34 35 36 36 37 38 39 39 40 41 43 45 47 46 44 42 42 42 41 38 37 38 40 40 38 36 35 36 37 37 35 35 37 39 40 41 41 41 42 42 44 45 47 49 46 41 39 39 37 35 34 33 34 33 32 30 28 28 28 29 29 30 31 31 31 31 30 28 26 24 24 24 26 28 30 31 31 30 31
31 30 30 30 30 31 31 33 34 34 35 36 37 37 38 39 41 44 48 48 46 44 44 44 44 41 39 39 42 41 38 37 37 37 37 39 38 36 37 39 40 42 41 42 43 44 45 46 47 48 46 41 38 38 36 33 33 33 34 35 35 34 32 31 32 32 31 32 32 33 32 32 32 32 31 30 28 26 26 27 29 31 33 33 33
31 30 29 28 28 29 29 30 31 32 33 35 36 37 37 38 40 43 47 49 49 48 46 45 44 43 42 42 42 42 38 37 39 38 36 37 39 39 38 39 41 42 43 42 43 44 46 47 47 48 48 44 40 38 35 34 34 36 37 37 37 38 37 37 36 36 35 34 34 35 35 34 34 34 34 34 32 30 29 28 28 29 31 34 36
33 31 29 29 29 28 28 29 29 30 31 33 34 35 36 37 38 40 43 47 50 50 50 49 46 45 45 45 44 44 41 39 40 40 38 37 39 41 41 41 42 42 43 42 43 45 46 47 47 48 49 48 44 41 39 39 39 40 40 40 40 40 40 40 40 39 38 37 35 35 35 36 36 36 36 35 34 34 33 31 30 29 30 32 34
34 33 32 31 31 30 30 29 29 30 30 31 32 33 34 35 36 37 39 42 45 48 50 50 48 46 47 48 48 47 43 41 41 42 40 38 39 42 43 43 43 43 43 43 43 44 45 46 47 48 49 49 48 45 44 45 45 45 44 44 44 43 43 44 44 43 41 39 37 36 35 35 36 36 36 35 34 34 35 34 33 31 30 31 32
34 34 34 33 33 32 32 32 32 31 31 31 32 33 33 34 35 35 36 37 40 42 44 46 46 46 48 50 50 49 45 43 43 41 39 39 41 42 44 45 45 45 45 44 43 43 44 45 46 47 48 49 50 49 48 48 48 49 49 49 47 44 45 47 48 47 44 42 41 38 36 35 36 36 36 35 34 34 35 36 35 33 32 32 32
36 35 35 35 35 35 34 34 33 33 33 32 32 33 34 34 35 36 36 36 37 38 39 40 42 45 49 51 52 51 47 45 45 42 39 40 41 42 43 45 45 46 47 47 45 44 44 43 44 45 46 48 51 52 51 50 50 50 49 50 48 43 45 50 50 48 45 44 43 39 37 37 36 37 38 37 36 35 36 36 36 36 34 33 33
39 38 37 37 37 37 36 36 35 35 35 34 34 35 35 35 36 37 38 38 38 38 37 38 39 41 45 49 52 52 49 47 47 45 43 42 42 41 42 44 46 47 48 49 48 47 46 45 45 45 45 47 50 52 52 52 50 49 47 49 48 46 50 53 52 48 44 42 41 38 38 39 38 38 39 39 39 39 39 39 38 38 37 35 34
42 41 40 39 39 39 38 38 37 37 36 36 36 36 37 37 37 38 39 40 40 40 39 38 37 38 41 45 50 52 51 50 50 49 48 46 45 42 41 43 45 47 48 49 50 49 48 47 48 48 47 48 49 49 49 49 48 48 48 49 49 50 54 55 53 50 46 44 44 42 41 41 40 40 41 42 43 42 43 42 40 40 40 38 36
45 44 43 42 42 42 41 40 40 39 38 38 37 37 37 38 39 39 40 40 41 41 41 41 40 39 39 41 44 48 51 52 53 53 52 51 49 47 45 44 44 46 47 49 50 50 49 49 50 50 50 50 50 49 48 48 48 49 50 51 51 52 54 54 53 52 51 50 50 48 46 45 45 45 44 44 45 45 46 45 42 41 41 40 39
48 47 46 45 44 44 44 43 43 42 41 40 40 39 38 38 39 40 41 42 42 42 42 43 43 42 41 41 42 44 47 51 53 55 56 55 55 53 51 49 47 47 47 47 48 49 50 51 51 52 52 52 52 51 50 51 50 50 51 52 52 52 53 54 54 54 54 53 53 53 52 51 51 50 48 46 46 47 48 47 45 43 41 41 41
49 49 48 48 47 46 46 45 45 45 44 43 42 42 41 40 40 40 41 42 44 45 45 45 45 44 44 43 43 43 45 47 50 53 56 57 57 57 56 55 53 51 49 49 49 49 50 52 53 53 54 55 54 53 53 54 53 53 53 53 53 53 54 56 56 55 55 55 54 54 54 53 52 51 50 48 47 47 48 48 48 47 45 43 42
50 50 50 49 49 48 48 48 48 47 47 47 46 45 44 43 43 42 42 42 43 45 46 47 47 47 46 46 46 46 46 46 48 50 53 55 56 57 57 58 58 56 54 53 53 52 51 51 54 55 57 58 58 57 57 57 57 56 56 56 56 56 57 58 58 58 57 57 55 54 54 54 53 52 51 50 49 48 48 49 50 50 49 48 45
49 50 50 50 50 50 50 50 50 50 50 50 49 48 47 47 46 45 45 44 44 44 46 47 48 48 49 49 49 48 48 48 48 49 50 53 54 55 56 57 59 59 58 57 57 57 55 53 53 55 58 59 60 60 60 59 60 60 59 59 59 59 60 60 60 60 59 58 57 56 56 55 55 55 54 53 52 51 51 51 51 52 52 51 50
51 51 51 52 52 52 51 51 51 51 52 52 51 51 51 50 49 49 48 48 47 46 46 47 48 49 50 50 51 51 51 50 50 50 50 51 53 54 55 56 57 58 60 60 60 60 60 58 56 54 55 58 60 61 62 62 62 61 61 61 61 61 62 62 62 61 61 60 60 59 59 59 58 58 58 57 56 55 54 53 53 54 54 53 53
55 55 54 54 54 53 53 52 52 52 52 53 53 53 53 53 52 52 51 51 50 50 49 49 49 49 50 51 52 53 53 53 53 53 52 52 53 54 54 55 56 57 58 60 62 63 63 63 61 58 55 56 58 61 62 64 64 64 63 63 63 63 63 64 64 64 63 63 62 63 63 63 63 62 61 61 61 59 58 57 57 57 57 56 56
58 58 57 57 57 55 54 54 54 54 54 53 54 54 54 55 55 55 55 54 53 53 53 52 52 52 51 51 51 52 54 55 55 55 55 55 55 55 56 56 56 57 58 59 61 63 64 64 65 64 61 58 58 60 62 64 66 67 67 67 67 67 67 67 67 67 67 66 66 67 67 67 67 66 65 64 64 64 62 61 61 61 61 60 59
59 59 59 59 58 57 57 56 56 56 56 55 55 55 56 56 57 57 57 57 57 56 55 55 55 55 55 54 54 53 54 54 55 56 56 57 57 57 58 58 58 59 59 60 60 62 64 65 65 65 65 63 61 61 62 64 66 68 69 70 70 71 71 71 71 71 71 70 70 70 70 70 70 69 69 68 68 67 66 66 66 65 64 64 63
61 62 62 61 60 59 60 59 58 58 58 57 57 57 58 58 58 58 58 58 58 58 58 58 58 58 57 58 58 57 56 56 56 56 56 57 58 59 59 60 60 61 61 61 62 62 64 65 66 66 66 66 65 63 62 64 66 68 69 71 72 73 74 74 74 74 74 73 73 73 73 73 72 72 72 72 72 71 70 70 69 68 68 67 66
61 63 64 64 64 64 62 61 59 59 59 59 60 60 59 59 59 59 59 59 59 59 60 60 61 61 60 60 61 61 60 60 59 58 58 58 59 59 60 61 61 62 63 63 64 64 65 66 67 68 68 68 67 66 64 65 66 68 70 72 73 74 75 76 76 76 76 75 75 75 74 74 74 73 73 73 73 73 73 72 72 70 69 68 67
58 59 59 61 63 64 62 60 59 60 60 61 62 63 62 61 60 60 59 59 59 60 61 61 62 63 63 63 63 63 63 63 63 63 62 61 61 61 61 62 62 63 63 64 65 66 67 67 68 68 69 70 70 69 68 67 67 68 70 72 74 76 77 77 77 77 77 77 76 76 76 76 75 75 75 74 73 73 73 74 73 72 71 69 68
55 55 54 56 58 59 60 58 56 58 59 60 61 63 64 64 62 61 61 61 61 62 62 63 63 63 64 64 65 66 65 65 66 66 67 66 65 64 63 63 63 64 64 65 66 66 67 68 69 70 70 71 71 71 71 70 69 69 69 71 74 76 77 78 79 79 79 79 78 78 78 78 78 78 78 77 76 75 74 74 74 74 73 72 71
55 55 55 57 58 58 58 56 55 57 59 59 59 60 62 63 63 63 64 64 64 64 65 66 66 66 66 65 66 67 67 68 68 69 69 69 68 68 67 67 66 66 67 67 67 68 68 69 70 71 72 73 73 73 73 73 72 72 72 72 73 75 76 77 79 80 80 80 80 80 80 79 79 78 77 77 76 75 74 74 75 75 74 73 72
56 56 57 58 58 57 56 56 56 58 59 61 61 60 61 61 62 63 64 65 66 66 68 69 69 69 69 68 68 68 68 69 70 71 71 71 71 71 71 70 70 70 70 70 70 70 70 71 71 72 73 74 75 75 76 76 76 75 75 75 74 75 75 76 78 80 80 81 81 81 82 82 81 80 80 79 78 77 75 75 75 75 75 75 75
58 58 57 58 58 57 56 56 58 59 59 60 61 61 62 61 61 62 63 64 65 66 67 69 70 70 70 71 72 71 71 70 70 71 72 73 73 73 73 73 73 73 73 73 73 74 74 74 74 74 74 74 75 76 76 77 77 77 78 78 78 77 77 77 78 79 80 80 80 81 82 83 83 83 84 84 84 84 83 81 79 78 78 78 78
59 59 59 59 59 59 58 59 59 60 60 59 60 62 63 63 62 62 63 63 64 65 65 67 68 69 70 71 71 71 72 72 72 72 73 73 74 75 75 75 75 76 76 76 77 77 77 77 77 78 77 77 77 78 77 77 77 78 79 80 80 80 80 80 80 81 82 81 79 79 81 83 84 83 84 85 85 85 86 86 85 84 82 82 82
61 61 61 61 61 61 61 61 62 63 63 62 62 63 64 64 63 63 63 64 65 65 65 66 67 68 69 69 67 66 68 71 72 73 73 74 75 75 75 76 77 78 79 79 80 80 80 80 80 80 81 80 80 81 81 80 79 79 80 80 81 81 82 83 83 84 86 85 82 79 80 84 85 84 84 85 86 85 85 86 86 86 85 84 84
63 64 63 64 64 64 63 63 64 65 66 66 66 65 65 65 65 65 66 66 66 67 68 68 68 69 69 68 67 67 68 69 70 71 72 74 76 76 77 77 78 79 80 81 82 82 82 82 82 83 84 84 84 84 85 84 83 83 83 83 82 82 82 84 84 86 88 89 87 83 81 85 88 86 85 87 88 87 87 87 87 87 86 86 86
66 66 66 66 66 66 66 65 65 67 69 69 69 69 68 67 67 68 68 68 68 69 72 73 73 74 73 72 71 71 71 71 70 70 71 73 74 76 77 77 78 79 81 82 83 83 84 84 85 85 86 87 87 87 88 88 87 87 87 86 86 86 85 85 85 86 88 90 89 86 83 86 90 89 88 89 89 89 89 90 90 89 89 88 88
68 68 68 68 68 68 68 68 68 70 71 72 72 72 71 70 69 70 70 71 70 72 75 76 77 77 77 77 76 76 75 74 74 74 74 74 74 75 75 76 77 79 81 83 83 83 84 85 86 87 88 89 90 90 90 91 91 90 90 90 90 90 89 88 88 89 90 91 91 88 85 87 90 91 90 90 90 90 91 92 92 92 91 91 90
70 70 70 70 69 69 70 70 72 73 73 73 74 74 73 73 72 73 73 74 74 75 76 77 77 77 78 78 79 79 79 79 79 79 79 79 78 78 78 79 80 81 82 83 83 84 84 86 87 89 90 91 92 93 93 93 93 93 93 92 93 93 92 92 92 93 93 93 94 92 89 88 90 91 91 91 91 91 92 93 94 94 93 92 92
71 70 70 70 70 70 71 72 74 75 75 75 75 75 75 75 75 76 76 77 77 78 78 79 80 79 79 79 80 81 82 82 82 83 83 83 82 82 82 83 84 84 84 84 84 84 85 86 87 89 90 92 93 94 95 95 96 96 96 95 96 96 95 94 95 95 96 97 97 97 94 92 92 93 92 92 92 93 93 94 94 94 94 93 93
71 71 70 70 70 71 73 74 75 76 76 76 76 77 77 77 77 78 79 79 79 79 80 81 82 83 82 82 83 83 83 84 85 86 86 87 86 86 85 86 86 87 86 86 85 86 86 87 88 89 90 92 93 95 96 97 98 99 99 98 98 98 98 97 97 97 97 99 100 101 99 97 96 96 95 95 95 96 97 97 96 95 95 94 94
Wind_Direction
281 279 277 276 276 275 274 272 271 269 267 269 272 272 273 275 273 269 270 276 279 279 278 277 275 273 270 269 266 264 266 263 257 252 247 242 234 224 212 204 203 207 215 224 227 231 236 236 233 232 233 235 238 239 239 238 237 242 249 249 242 240 239 241 247 250 250 251 253 255 252 250 253 259 263 265 264 262 260 262 265 269 274 277 276
279 277 276 275 275 274 273 272 271 268 267 269 269 268 270 270 265 264 269 274 275 274 274 273 273 272 268 265 263 263 267 265 257 252 248 243 235 225 214 206 204 206 211 220 229 232 231 229 228 229 233 237 241 241 241 242 244 247 250 247 242 239 238 239 243 248 247 244 244 245 244 245 249 253 259 264 267 263 257 256 260 265 270 274 274
278 277 276 274 273 273 272 270 269 268 266 266 266 266 267 263 260 264 269 270 269 269 267 267 270 271 269 263 260 265 270 266 256 249 247 244 236 225 215 210 207 206 209 219 227 229 231 233 228 227 235 240 243 243 242 243 246 248 250 249 246 240 238 239 241 245 246 241 236 237 241 245 248 250 255 260 265 263 255 253 257 262 266 271 271
277 276 274 272 271 271 270 269 268 267 265 264 263 263 262 259 260 264 266 265 265 265 263 264 268 269 268 264 260 265 270 268 257 247 245 243 237 227 218 216 213 208 210 220 225 226 230 234 233 235 244 249 249 248 245 244 245 248 250 252 251 247 242 240 240 243 245 243 239 238 241 244 246 247 249 253 256 255 251 252 256 259 263 267 269
273 272 271 270 270 270 269 268 267 266 264 264 263 261 261 260 261 263 261 261 261 260 261 264 267 267 266 263 261 263 266 268 260 247 243 240 235 228 223 224 220 210 208 211 215 222 226 231 236 241 248 254 256 254 250 248 248 249 250 251 253 252 248 244 241 241 243 245 244 243 243 244 246 246 246 247 249 249 249 251 254 258 262 266 268
269 268 267 267 268 268 268 267 267 267 264 262 260 259 260 260 260 259 257 259 260 258 258 264 269 267 262 260 260 261 262 264 259 247 241 236 231 228 226 226 222 215 211 208 208 217 224 229 236 242 247 254 257 256 255 253 251 251 252 252 252 252 251 248 246 242 240 243 246 245 243 245 249 249 248 249 250 250 248 250 254 258 262 267 269
266 264 262 263 264 266 267 267 266 265 261 259 257 258 260 259 258 255 255 259 260 257 257 262 267 266 262 261 260 259 258 257 252 243 238 233 229 227 225 226 224 221 218 213 212 217 222 226 235 242 246 250 251 251 253 254 253 252 254 255 253 251 250 251 251 247 243 242 244 245 245 250 255 254 252 251 251 250 249 251 254 257 258 264 270
264 261 261 261 262 265 267 267 265 261 260 258 256 258 259 257 254 254 256 259 257 254 255 259 262 264 264 262 259 255 252 247 241 238 235 232 229 226 225 225 226 226 223 218 218 219 218 221 231 239 240 243 246 247 248 250 252 253 255 256 254 252 251 252 252 251 248 246 246 247 250 255 257 256 253 251 250 250 250 252 255 256 257 263 270
261 259 260 260 260 263 264 263 261 258 258 256 255 258 258 255 253 255 258 258 254 254 257 259 260 263 263 259 255 252 248 243 236 235 234 231 229 227 226 225 227 229 225 221 222 223 220 220 227 233 235 236 240 247 249 247 250 253 255 254 252 251 251 251 250 249 248 249 249 251 254 256 256 256 254 252 251 251 252 254 257 259 260 264 269
256 254 256 257 257 258 257 257 256 254 253 252 254 256 256 256 256 258 259 257 255 256 258 259 259 261 260 254 251 248 245 241 236 233 232 231 230 229 227 226 227 228 225 222 224 228 227 227 229 231 233 233 236 247 254 253 254 254 252 252 249 246 246 247 248 247 247 248 251 252 254 256 257 257 256 254 254 253 253 255 258 262 264 266 268
253 251 252 252 252 251 251 252 252 251 249 250 253 253 254 257 259 259 258 255 254 254 256 259 259 258 256 249 245 243 241 238 235 233 231 230 230 230 230 229 228 227 225 223 224 228 231 231 230 230 230 233 239 250 257 263 264 255 247 248 248 244 243 244 246 247 247 249 251 253 255 257 258 258 258 257 256 256 255 255 257 260 264 265 266
255 253 250 247 247 247 249 251 250 248 246 246 248 252 257 262 263 261 257 253 252 252 255 259 256 252 248 243 240 240 240 238 236 233 230 228 227 227 230 232 230 227 226 225 224 227 229 229 227 226 227 229 238 250 258 265 268 254 240 240 243 244 244 244 245 247 249 251 253 255 255 257 258 258 258 256 255 255 255 256 256 256 258 261 262
257 254 252 248 248 248 249 249 249 247 246 247 250 255 261 263 264 265 259 254 253 252 254 255 247 238 237 237 236 236 238 239 238 236 233 230 226 224 225 229 229 227 226 226 226 227 228 229 227 226 224 225 236 250 256 261 265 252 237 235 239 241 242 241 242 245 249 252 254 256 256 257 257 257 257 255 253 253 254 255 256 255 253 255 260
257 255 253 251 250 250 249 250 250 249 250 252 254 257 260 259 260 264 260 254 252 250 251 246 234 226 226 230 232 232 235 238 241 240 239 236 231 228 227 230 231 228 226 226 228 229 230 230 229 228 224 224 241 251 254 260 261 248 237 235 236 236 237 236 237 240 245 249 251 254 255 256 257 257 257 257 255 255 255 256 257 256 252 252 257
260 256 255 253 252 251 250 250 250 251 252 254 255 256 255 254 254 254 250 249 248 246 242 234 226 220 219 224 230 232 236 240 241 241 242 242 237 233 234 236 236 233 228 227 229 230 230 230 230 230 225 222 238 247 249 256 257 245 239 240 240 238 235 232 233 234 236 239 242 246 250 254 255 255 257 258 258 258 258 258 259 258 254 251 253
264 260 257 255 254 254 253 251 251 251 251 252 253 253 251 250 248 245 243 243 242 239 233 227 223 219 218 223 228 229 235 240 240 239 241 242 238 235 235 238 238 236 232 229 229 230 230 230 229 231 228 221 227 238 242 248 250 242 238 240 240 238 234 232 232 232 232 234 236 238 242 248 252 254 256 257 258 258 258 259 259 259 255 252 252
268 265 261 258 257 256 255 254 253 251 251 250 249 249 249 247 244 241 239 238 237 234 229 225 222 220 220 224 228 230 232 237 240 241 242 241 236 232 233 235 236 237 235 232 230 229 230 231 230 232 232 225 221 226 234 240 242 237 234 235 235 234 233 234 235 236 238 240 242 243 244 246 249 253 255 256 258 259 259 258 259 259 257 254 253
270 267 264 262 259 258 257 255 254 253 252 251 249 248 247 245 242 238 234 233 235 235 229 224 221 222 225 227 229 232 234 236 238 240 242 242 237 231 229 232 234 235 235 234 232 231 231 233 233 233 234 232 225 223 228 235 236 233 232 232 232 233 235 236 238 240 242 245 248 252 257 259 257 256 256 257 258 260 261 261 261 260 260 258 256
270 267 265 263 261 259 257 256 255 254 253 253 251 249 247 245 241 237 233 231 233 234 230 224 221 224 228 229 230 232 234 237 238 239 241 242 239 234 229 231 234 234 234 234 233 233 233 234 234 234 234 235 232 227 226 229 231 233 235 234 233 234 236 239 241 242 244 246 247 250 257 265 267 267 265 263 261 260 261 262 263 263 262 262 261
271 268 265 263 261 260 258 256 254 253 252 252 251 250 249 246 243 239 235 232 233 234 231 226 224 226 227 228 229 229 233 238 239 239 241 241 240 238 233 231 233 235 234 233 233 234 234 234 234 234 234 235 232 227 224 226 230 235 238 239 238 236 236 238 240 241 243 244 246 247 251 258 264 268 269 269 268 266 264 263 263 263 263 262 261
271 268 264 261 259 258 257 255 253 251 250 250 249 249 249 248 246 243 239 237 237 236 234 229 228 230 227 226 228 229 234 239 238 237 239 240 240 239 237 233 232 234 234 233 233 234 236 235 235 236 237 236 232 227 225 229 234 237 239 240 241 240 238 238 238 239 240 241 244 247 249 252 257 262 265 267 269 269 270 269 266 265 265 263 261
271 266 262 259 258 257 255 254 253 251 250 249 249 248 248 247 247 245 243 242 241 240 239 236 236 236 230 226 227 231 237 239 237 235 236 239 240 238 238 236 233 234 235 234 234 234 236 237 237 238 239 240 239 234 233 235 238 240 241 241 242 242 242 242 241 240 239 240 242 245 246 249 252 257 262 265 268 269 271 274 274 272 271 271 269
270 265 260 257 256 256 255 255 254 253 251 250 249 248 248 247 247 246 245 244 244 243 243 242 242 238 231 226 227 231 236 236 233 233 235 238 240 238 238 238 237 236 236 236 236 236 237 238 238 239 241 242 243 242 241 242 243 245 245 244 243 244 245 244 244 243 242 243 243 243 244 245 249 254 259 263 267 269 269 272 274 274 274 276 276
269 265 260 257 255 254 254 253 254 254 253 252 250 248 248 247 246 245 244 245 245 244 244 244 243 238 231 227 227 230 233 232 230 231 234 236 238 238 239 238 238 239 239 237 237 238 239 239 239 240 240 242 243 244 244 245 247 248 248 247 245 244 245 245 245 245 246 247 248 247 247 247 250 254 257 260 263 266 267 268 268 269 271 274 274
268 265 261 257 255 254 254 253 252 252 253 253 252 251 249 248 246 244 244 245 246 246 245 244 242 239 234 229 228 230 232 230 228 228 232 233 233 236 239 239 239 240 242 240 239 238 240 240 241 241 241 241 242 242 243 245 247 248 248 247 244 240 243 245 246 246 248 251 253 252 252 253 253 256 259 261 262 265 268 268 266 266 267 269 269
265 264 261 258 255 254 254 254 252 251 252 252 253 253 252 250 249 246 245 245 247 248 249 247 244 241 238 234 232 232 232 230 227 228 229 228 228 230 236 239 240 240 242 243 241 240 240 241 241 242 241 241 241 241 243 244 245 246 247 247 245 242 244 248 249 248 248 250 253 255 256 256 257 259 261 264 265 266 267 268 267 266 265 265 266
260 260 260 258 255 254 254 254 253 252 251 252 252 252 252 252 252 250 247 246 246 248 250 251 248 245 242 239 236 235 234 231 229 230 231 228 226 228 232 237 240 241 242 243 242 241 240 242 242 242 241 241 242 242 244 245 246 246 245 247 248 246 247 251 252 250 247 246 251 257 258 258 259 259 260 262 263 264 264 266 267 266 263 261 262
257 256 256 256 255 253 252 252 253 252 251 251 251 251 251 252 252 252 251 249 247 247 248 250 250 248 246 243 241 239 237 235 234 234 235 233 231 229 230 233 238 240 241 242 243 242 240 241 243 244 244 243 243 243 244 245 247 247 246 246 247 248 250 252 252 252 251 251 254 256 256 257 259 259 258 258 260 261 262 264 266 265 262 259 259
257 255 254 254 253 252 252 251 251 251 250 250 250 250 251 251 250 250 251 250 249 248 248 248 249 249 248 246 245 242 240 240 239 239 240 240 238 236 233 234 236 238 239 240 241 242 242 241 241 243 245 245 245 244 244 244 246 247 246 246 247 248 250 252 253 254 256 257 258 259 259 259 260 259 258 258 259 258 259 262 264 264 262 260 258
258 257 255 254 253 252 251 251 250 250 250 249 249 250 250 250 250 249 249 249 249 249 249 249 249 249 249 248 247 245 243 243 242 242 243 244 244 243 241 240 239 238 237 237 237 239 242 243 242 242 243 244 245 245 245 245 246 246 246 246 247 247 248 250 253 255 257 258 259 261 262 262 261 260 259 261 261 259 259 260 262 263 263 262 260
258 258 257 256 255 253 252 251 250 249 249 249 249 249 249 250 250 250 249 248 248 248 248 249 250 250 250 249 248 248 246 245 244 244 244 245 246 247 246 246 245 243 240 237 236 236 238 241 244 244 243 244 244 245 246 247 247 247 247 247 247 247 248 249 252 254 256 258 259 259 260 262 262 261 261 262 262 261 261 260 260 261 263 263 262
260 259 258 257 256 255 253 252 251 250 249 249 249 248 249 249 249 250 250 250 249 248 247 248 249 249 250 249 249 249 249 248 247 246 246 246 247 248 249 249 249 248 245 241 239 238 237 238 241 244 245 245 245 245 246 248 249 249 249 248 248 248 249 250 251 253 255 257 258 259 259 261 262 262 263 263 262 261 261 261 260 261 262 262 262
262 260 259 258 257 256 254 253 251 251 250 250 249 249 249 248 248 248 249 250 250 249 248 247 247 248 249 249 249 249 249 249 249 248 247 247 247 248 249 250 250 249 248 246 243 242 241 240 240 242 244 246 247 246 245 246 247 249 250 250 250 250 250 251 252 254 255 256 258 259 260 261 262 263 263 263 263 261 261 261 261 261 261 261 262
261 260 259 259 258 257 256 255 254 253 252 251 251 251 250 249 248 248 248 248 248 249 249 248 248 248 248 248 248 249 249 250 250 249 249 248 248 248 249 250 250 250 250 249 247 246 245 245 245 244 243 243 245 246 246 245 245 247 248 250 250 250 251 252 253 253 254 255 256 257 258 260 261 261 261 262 262 262 261 260 261 261 261 261 261
259 258 258 258 258 257 257 257 256 255 254 253 253 252 252 252 251 250 248 247 247 247 248 248 249 249 248 248 248 248 249 249 250 250 250 250 249 249 249 249 250 250 250 250 249 248 247 248 248 248 247 245 243 243 245 246 245 245 246 247 248 249 250 250 251 253 254 255 255 255 256 258 260 261 261 261 261 261 261 261 261 261 262 262 261
257 257 257 257 256 256 256 256 256 255 255 255 254 254 253 253 253 252 251 249 248 248 248 248 248 248 249 249 248 248 248 248 249 249 250 250 250 250 250 250 250 250 250 250 250 250 249 249 250 250 251 250 247 243 243 244 246 246 245 246 246 247 248 249 250 252 253 254 255 255 256 257 259 260 261 261 261 261 261 262 262 262 263 263 263
257 256 256 255 254 254 254 256 256 256 255 255 255 254 254 253 253 253 252 251 250 250 249 249 249 249 249 249 249 248 248 248 248 248 249 249 249 250 250 250 250 251 250 250 250 251 251 250 250 250 251 252 251 248 245 243 245 246 247 247 246 247 248 249 250 251 252 253 254 255 257 258 259 259 260 261 262 262 262 262 262 262 263 264 264
257 257 256 255 254 254 255 256 257 257 255 254 255 255 255 255 254 254 253 253 253 253 252 251 251 250 249 249 249 249 249 248 248 248 248 248 248 249 249 250 250 250 251 251 251 251 251 251 251 251 251 251 252 252 249 246 245 245 246 248 248 248 248 249 249 250 251 252 253 254 256 257 258 258 258 259 260 261 262 263 263 263 263 263 263
257 257 258 258 257 257 256 256 257 258 257 256 255 255 255 256 256 256 256 255 255 255 254 253 252 252 251 251 250 250 249 249 249 249 248 248 248 248 248 249 249 250 250 251 251 251 252 252 252 252 252 252 252 252 252 251 248 246 246 247 248 248 249 250 250 250 251 252 252 253 254 255 256 257 257 258 258 259 260 261 263 263 263 263 263
259 257 258 260 261 260 259 257 257 258 259 258 256 256 256 256 256 257 257 257 256 256 255 255 254 254 253 252 252 251 250 250 250 250 250 249 249 248 248 248 249 249 249 250 251 251 252 252 253 253 253 253 253 253 253 252 251 250 248 247 248 248 249 249 250 251 251 251 252 253 253 254 255 256 257 257 258 258 258 259 260 262 263 263 264
261 259 259 262 263 263 262 260 258 257 257 257 256 257 257 258 257 256 256 256 257 257 257 256 256 256 254 254 253 253 252 251 251 251 251 251 250 250 249 249 249 249 250 250 250 250 251 252 252 253 253 254 254 254 254 253 253 252 251 250 249 249 249 250 250 251 251 251 251 252 252 253 253 255 255 256 256 257 257 257 258 259 260 261 262
261 261 261 262 263 263 263 261 260 258 257 258 259 259 260 260 260 258 257 256 256 256 256 256 257 257 256 255 254 254 253 253 253 252 252 252 252 251 251 250 250 250 250 251 251 251 251 251 252 252 253 253 254 254 254 254 254 253 253 253 252 252 251 251 251 252 252 252 252 252 252 252 253 253 254 255 256 256 256 256 257 257 257 258 258
260 260 261 261 262 262 262 262 261 260 260 261 263 264 264 264 264 262 260 258 256 256 255 255 255 255 255 255 255 254 254 254 254 254 254 253 253 253 252 252 252 251 251 251 251 251 251 252 252 252 252 253 254 254 254 254 254 254 254 254 254 253 253 253 253 253 253 253 253 254 254 254 254 254 255 256 257 257 257 257 257 257 257 256 256
259 259 259 259 260 260 260 260 261 261 261 261 262 263 264 265 265 265 264 262 260 258 257 255 254 253 253 253 254 255 255 255 256 256 256 255 254 254 254 254 253 253 252 252 252 252 252 252 252 253 253 253 254 254 254 254 254 254 254 255 255 255 255 255 254 255 255 254 253 254 255 256 256 256 256 257 257 258 259 259 259 258 258 257 257
259 259 259 259 259 259 259 259 260 260 260 260 259 260 261 262 263 263 263 263 263 262 260 258 255 254 252 252 253 255 256 257 257 257 257 257 256 255 255 255 255 254 254 254 253 253 253 253 253 253 253 253 254 255 255 254 254 254 254 255 255 255 255 255 255 256 256 256 255 254 255 257 257 257 257 257 257 258 258 259 259 260 260 259 259
260 260 259 259 259 259 259 259 259 260 260 259 259 258 259 260 261 261 260 260 261 262 262 261 260 259 257 255 255 257 258 258 258 258 258 258 257 256 256 255 255 255 255 255 255 254 254 254 254 254 254 254 254 254 255 255 254 254 255 255 255 255 255 255 255 256 257 257 257 255 255 256 258 257 257 258 258 258 258 258 258 259 259 260 260
259 259 260 260 260 260 260 259 259 260 260 260 259 258 257 257 258 259 260 260 260 260 262 263 264 264 263 263 262 262 262 261 260 260 259 258 257 256 255 254 255 255 255 255 255 255 256 256 255 255 255 255 255 255 255 255 254 254 254 255 255 255 255 255 255 256 256 257 257 256 255 256 257 258 257 258 258 259 259 259 259 259 259 259 259
259 259 259 259 260 260 261 261 260 260 260 260 260 260 259 258 257 257 258 259 258 258 259 261 263 264 265 266 266 266 265 264 263 262 261 260 258 256 255 254 254 255 255 255 255 256 256 256 257 256 256 256 256 256 256 256 255 255 254 255 255 255 255 255 255 256 256 257 257 257 255 255 256 257 257 258 258 258 259 259 260 259 259 259 260
261 260 259 259 259 260 260 261 260 260 260 260 261 261 261 260 259 258 257 257 257 256 257 258 260 262 263 265 265 265 265 264 264 263 262 261 260 259 258 257 257 257 256 256 256 256 256 256 257 257 257 257 257 257 257 256 256 256 256 255 255 255 255 255 255 256 256 257 257 257 256 255 256 257 257 258 258 258 258 258 259 259 260 260 260
261 261 260 260 260 259 259 259 259 260 260 260 260 261 261 261 261 260 259 258 258 257 257 257 258 258 260 261 263 263 264 264 264 264 263 263 262 261 261 260 260 259 258 258 257 257 257 257 257 257 257 256 257 257 257 257 257 257 257 256 256 256 256 255 255 256 256 257 257 257 257 256 256 257 257 258 259 258 258 258 258 259 259 259 260
261 260 260 260 260 260 259 258 258 259 259 260 260 260 260 260 260 260 260 260 259 258 258 258 258 258 258 259 260 261 261 262 262 263 263 264 264 263 263 262 262 262 261 260 260 259 258 258 258 257 257 257 257 256 257 257 257 257 257 257 256 256 256 256 256 256 256 257 258 258 257 257 256 257 257 257 258 259 259 259 259 259 259 259 259
Height
10713 10714 10713 10711 10711 10712 10713 10714 10714 10716 10718 10718 10719 10719 10719 10717 10717 10717 10717 10717 10717 10717 10718 10720 10721 10722 10722 10722 10723 10724 10724 10724 10721 10720 10721 10723 10726 10727 10728 10730 10732 10734 10737 10740 10742 10743 10745 10746 10748 10749 10751 10752 10754 10756 10757 10759 10760 10762 10763 10765 10766 10767 10767 10768 10769 10769 10769 10770 10771 10772 10773 10774 10775 10775 10776 10777 10778 10779 10779 10780 10781 10782 10782 10782 10782
10705 10707 10706 10703 10703 10705 10707 10708 10708 10710 10711 10712 10713 10714 10714 10713 10712 10712 10713 10713 10713 10713 10714 10714 10716 10717 10718 10718 10719 10720 10720 10720 10718 10716 10717 10719 10722 10724 10725 10726 10727 10729 10732 10736 10738 10740 10742 10743 10745 10746 10747 10749 10751 10752 10754 10755 10756 10758 10759 10761 10762 10763 10764 10765 10766 10766 10766 10766 10767 10768 10770 10771 10772 10772 10773 10774 10775 10775 10776 10777 10778 10778 10779 10779 10780
10697 10698 10698 10695 10695 10699 10700 10701 10702 10703 10704 10706 10706 10708 10708 10708 10707 10708 10708 10709 10710 10710 10709 10710 10711 10713 10714 10714 10715 10716 10716 10716 10714 10712 10713 10715 10717 10720 10721 10722 10723 10725 10728 10731 10734 10736 10738 10740 10741 10742 10744 10745 10747 10748 10750 10751 10753 10754 10755 10757 10758 10759 10760 10761 10762 10763 10764 10764 10764 10765 10766 10767 10768 10769 10770 10771 10772 10772 10773 10774 10775 10775 10776 10776 10777
10689 10689 10689 10687 10688 10691 10693 10693 10694 10695 10697 10699 10700 10701 10702 10703 10703 10702 10702 10704 10704 10705 10705 10705 10706 10708 10710 10711 10711 10712 10712 10713 10711 10709 10709 10711 10714 10716 10718 10719 10721 10722 10725 10728 10730 10732 10734 10736 10737 10738 10740 10742 10744 10745 10746 10747 10749 10750 10751 10752 10754 10755 10757 10758 10759 10760 10761 10761 10761 10761 10762 10763 10764 10765 10766 10767 10768 10769 10770 10771 10772 10772 10773 10773 10774
10683 10682 10680 10680 10682 10684 10685 10686 10687 10688 10690 10692 10693 10694 10696 10697 10698 10697 10697 10698 10698 10699 10700 10700 10701 10703 10705 10707 10707 10707 10708 10710 10709 10706 10705 10707 10710 10712 10715 10716 10718 10719 10721 10723 10725 10728 10730 10732 10734 10735 10737 10739 10740 10741 10743 10744 10745 10746 10747 10748 10750 10751 10753 10754 10755 10756 10757 10758 10759 10759 10759 10760 10761 10762 10763 10764 10765 10766 10767 10768 10769 10769 10770 10770 10771
10676 10676 10674 10674 10676 10677 10678 10679 10681 10682 10684 10685 10685 10687 10688 10691 10692 10691 10691 10692 10694 10695 10697 10697 10697 10698 10700 10702 10701 10702 10704 10706 10706 10703 10702 10704 10706 10708 10710 10712 10715 10716 10717 10718 10719 10722 10725 10729 10730 10731 10733 10736 10737 10738 10739 10740 10741 10742 10743 10744 10746 10747 10749 10750 10751 10753 10754 10755 10755 10756 10757 10758 10758 10760 10761 10762 10763 10764 10764 10765 10766 10767 10767 10767 10768
10668 10669 10668 10669 10670 10670 10672 10673 10674 10675 10677 10678 10679 10680 10682 10684 10686 10686 10686 10688 10690 10691 10692 10693 10692 10693 10694 10695 10696 10696 10699 10701 10701 10699 10698 10699 10702 10704 10706 10708 10710 10712 10713 10715 10716 10718 10720 10724 10726 10728 10730 10732 10734 10735 10736 10737 10738 10739 10740 10741 10742 10743 10744 10746 10747 10749 10751 10751 10752 10753 10754 10755 10756 10757 10758 10759 10760 10761 10761 10762 10763 10763 10764 10765 10765
10660 10661 10662 10664 10664 10664 10665 10666 10667 10669 10670 10672 10673 10674 10676 10678 10680 10680 10682 10684 10685 10686 10687 10687 10687 10687 10689 10690 10691 10692 10693 10695 10695 10695 10694 10695 10697 10700 10702 10704 10706 10708 10710 10712 10713 10714 10716 10719 10722 10724 10726 10728 10730 10732 10734 10734 10734 10736 10737 10738 10739 10739 10740 10742 10743 10745 10746 10748 10749 10750 10751 10751 10752 10753 10754 10755 10756 10757 10758 10758 10759 10760 10761 10761 10762
10654 10654 10655 10658 10659 10659 10659 10660 10662 10663 10665 10666 10667 10668 10670 10672 10674 10675 10677 10679 10680 10680 10681 10682 10682 10683 10685 10686 10687 10688 10689 10690 10690 10691 10691 10692 10693 10695 10698 10701 10703 10704 10706 10708 10710 10712 10713 10715 10717 10720 10722 10724 10726 10728 10730 10731 10732 10732 10733 10735 10736 10736 10737 10738 10739 10741 10742 10743 10744 10746 10746 10747 10748 10749 10750 10751 10752 10753 10754 10755 10755 10756 10757 10758 10758
10650 10649 10649 10652 10654 10654 10655 10656 10658 10658 10660 10661 10662 10663 10665 10668 10669 10671 10672 10674 10674 10675 10676 10678 10679 10681 10682 10683 10683 10684 10685 10686 10686 10687 10687 10688 10689 10691 10694 10696 10698 10700 10702 10705 10707 10709 10711 10712 10714 10716 10718 10720 10722 10724 10726 10728 10729 10730 10730 10732 10733 10734 10734 10735 10736 10737 10738 10739 10740 10741 10742 10743 10744 10745 10746 10747 10748 10749 10750 10751 10751 10752 10753 10754 10755
10646 10645 10646 10647 10648 10649 10650 10651 10653 10654 10655 10656 10657 10659 10661 10663 10665 10665 10667 10668 10669 10670 10672 10675 10676 10677 10678 10679 10678 10679 10681 10682 10682 10683 10684 10685 10686 10688 10690 10692 10694 10697 10698 10701 10703 10705 10707 10709 10710 10712 10714 10716 10718 10720 10722 10724 10725 10726 10727 10728 10729 10730 10731 10732 10733 10734 10735 10736 10737 10738 10738 10739 10740 10741 10742 10743 10744 10745 10745 10746 10747 10748 10750 10750 10751
10640 10641 10641 10642 10642 10643 10644 10645 10647 10648 10649 10650 10651 10652 10654 10657 10659 10659 10661 10662 10663 10665 10668 10671 10672 10673 10674 10674 10674 10676 10677 10678 10679 10679 10680 10681 10682 10684 10686 10687 10690 10692 10694 10696 10699 10701 10702 10703 10705 10707 10709 10711 10713 10716 10718 10720 10720 10721 10722 10723 10725 10727 10728 10729 10730 10731 10732 10733 10733 10734 10735 10735 10736 10737 10738 10739 10740 10741 10741 10742 10743 10744 10746 10746 10747
10634 10635 10635 10636 10636 10637 10639 10640 10641 10643 10644 10644 10645 10646 10648 10651 10653 10654 10655 10656 10658 10661 10664 10667 10668 10669 10669 10669 10670 10672 10674 10675 10675 10676 10676 10677 10678 10679 10681 10682 10685 10687 10689 10692 10694 10696 10698 10699 10700 10703 10705 10707 10710 10712 10714 10715 10715 10716 10717 10719 10721 10723 10724 10725 10726 10728 10729 10730 10730 10731 10732 10732 10732 10733 10734 10735 10736 10737 10738 10738 10739 10741 10742 10743 10743
10630 10631 10630 10630 10631 10631 10633 10635 10636 10638 10639 10639 10640 10642 10644 10646 10647 10648 10649 10650 10653 10656 10660 10662 10664 10664 10665 10665 10667 10668 10670 10671 10672 10673 10673 10674 10675 10677 10678 10680 10681 10682 10684 10687 10690 10692 10693 10695 10697 10700 10701 10703 10706 10708 10710 10712 10712 10712 10714 10715 10717 10718 10720 10721 10723 10724 10726 10727 10727 10728 10728 10729 10729 10729 10730 10731 10732 10733 10734 10735 10735 10736 10737 10738 10740
10626 10626 10626 10626 10626 10626 10628 10630 10631 10632 10634 10635 10635 10637 10639 10641 10643 10644 10645 10646 10649 10652 10655 10657 10659 10660 10661 10662 10663 10664 10666 10667 10668 10670 10670 10671 10673 10674 10676 10678 10679 10679 10681 10683 10686 10688 10689 10692 10694 10696 10697 10699 10702 10704 10707 10709 10709 10710 10711 10712 10714 10715 10716 10717 10719 10720 10722 10723 10724 10724 10725 10725 10725 10726 10726 10727 10728 10729 10730 10731 10731 10732 10733 10734 10736
10620 10621 10622 10622 10621 10621 10623 10625 10626 10627 10629 10630 10630 10631 10633 10636 10638 10640 10642 10644 10646 10649 10651 10653 10655 10656 10657 10659 10660 10661 10662 10663 10664 10665 10666 10668 10669 10671 10673 10675 10676 10676 10678 10680 10682 10684 10685 10688 10690 10693 10694 10695 10697 10700 10703 10705 10707 10707 10708 10709 10710 10712 10713 10714 10715 10717 10718 10719 10720 10721 10721 10721 10722 10722 10723 10723 10724 10725 10726 10727 10727 10728 10729 10731 10732
10615 10616 10617 10617 10617 10617 10618 10620 10621 10622 10623 10624 10626 10627 10628 10630 10633 10636 10638 10641 10643 10645 10647 10649 10651 10653 10654 10655 10656 10657 10658 10659 10660 10661 10662 10663 10665 10667 10669 10670 10672 10673 10674 10676 10678 10680 10681 10683 10686 10689 10691 10691 10692 10695 10698 10700 10703 10704 10705 10706 10707 10708 10710 10711 10712 10714 10715 10717 10717 10718 10718 10718 10719 10719 10719 10720 10720 10721 10722 10723 10724 10724 10725 10727 10728
10612 10612 10613 10613 10613 10613 10614 10615 10616 10618 10618 10620 10621 10623 10624 10626 10628 10630 10633 10636 10639 10641 10644 10646 10648 10649 10651 10652 10652 10653 10654 10655 10656 10657 10658 10659 10661 10663 10665 10666 10668 10669 10670 10672 10674 10676 10678 10679 10682 10684 10687 10689 10689 10690 10693 10696 10698 10700 10701 10702 10703 10704 10706 10707 10709 10710 10712 10714 10715 10715 10716 10716 10716 10716 10717 10717 10717 10717 10718 10719 10720 10720 10721 10722 10723
10609 10609 10609 10610 10610 10610 10611 10611 10612 10613 10614 10615 10616 10618 10619 10621 10623 10625 10628 10631 10634 10637 10639 10641 10643 10645 10646 10647 10648 10649 10650 10651 10652 10654 10655 10656 10658 10659 10661 10663 10664 10665 10667 10669 10670 10672 10674 10675 10677 10680 10683 10685 10686 10687 10690 10692 10694 10696 10697 10698 10699 10700 10701 10703 10704 10706 10708 10709 10710 10711 10712 10713 10713 10714 10714 10714 10714 10714 10714 10715 10715 10716 10717 10718 10719
10606 10606 10607 10607 10607 10608 10608 10608 10609 10610 10611 10611 10612 10613 10615 10616 10618 10620 10622 10626 10628 10631 10634 10637 10638 10640 10641 10642 10644 10645 10647 10648 10649 10650 10651 10652 10654 10656 10658 10660 10660 10662 10663 10665 10666 10668 10670 10671 10673 10675 10678 10680 10682 10684 10686 10688 10690 10692 10693 10693 10695 10696 10697 10698 10699 10700 10702 10703 10705 10706 10708 10709 10710 10710 10711 10711 10711 10711 10711 10711 10712 10712 10713 10714 10715
10603 10603 10603 10604 10604 10605 10605 10606 10606 10607 10607 10607 10608 10609 10610 10612 10613 10615 10617 10620 10622 10625 10629 10632 10633 10635 10636 10638 10639 10641 10643 10644 10645 10646 10647 10648 10650 10652 10654 10656 10657 10658 10659 10661 10663 10665 10666 10667 10670 10671 10673 10675 10678 10681 10683 10684 10686 10687 10688 10689 10690 10692 10693 10693 10694 10695 10696 10697 10699 10701 10703 10705 10706 10706 10707 10708 10708 10709 10708 10708 10708 10709 10709 10710 10710
10600 10600 10600 10600 10601 10601 10602 10602 10603 10604 10604 10604 10605 10606 10607 10608 10609 10611 10613 10615 10617 10620 10623 10626 10628 10630 10632 10633 10635 10636 10638 10640 10641 10642 10643 10644 10645 10647 10649 10651 10653 10654 10656 10658 10660 10661 10662 10664 10667 10669 10671 10673 10675 10678 10680 10681 10681 10682 10683 10685 10686 10687 10688 10689 10690 10690 10691 10693 10694 10696 10697 10699 10701 10702 10703 10704 10705 10705 10706 10705 10705 10705 10705 10706 10706
10597 10597 10597 10597 10597 10598 10598 10599 10599 10600 10601 10601 10602 10602 10603 10604 10605 10607 10609 10610 10612 10614 10617 10619 10622 10625 10627 10628 10630 10631 10633 10635 10636 10637 10639 10640 10641 10642 10644 10646 10648 10650 10652 10654 10655 10657 10659 10661 10663 10666 10668 10670 10672 10675 10676 10677 10678 10678 10679 10680 10681 10682 10683 10683 10684 10685 10687 10688 10689 10690 10692 10694 10696 10697 10699 10701 10702 10702 10702 10702 10702 10702 10702 10702 10702
10594 10594 10594 10594 10594 10594 10595 10595 10596 10597 10597 10598 10598 10599 10599 10600 10601 10603 10604 10606 10608 10610 10612 10614 10616 10619 10621 10623 10625 10626 10628 10630 10631 10633 10635 10636 10637 10638 10639 10641 10643 10644 10646 10648 10650 10653 10655 10657 10660 10662 10665 10667 10668 10669 10671 10672 10672 10673 10674 10675 10675 10676 10677 10677 10678 10680 10682 10682 10683 10686 10688 10690 10691 10693 10694 10697 10698 10698 10697 10697 10698 10697 10698 10698 10699
10591 10590 10591 10591 10591 10591 10592 10592 10592 10593 10594 10594 10595 10595 10596 10597 10598 10599 10600 10602 10603 10605 10607 10609 10611 10613 10615 10618 10620 10621 10623 10625 10626 10629 10631 10632 10633 10634 10634 10636 10638 10639 10640 10643 10646 10648 10651 10654 10656 10657 10660 10661 10661 10662 10663 10665 10666 10667 10668 10669 10670 10670 10670 10671 10673 10674 10675 10676 10678 10681 10684 10685 10687 10688 10689 10691 10693 10693 10693 10693 10693 10693 10693 10694 10694
10587 10587 10587 10587 10588 10588 10588 10589 10589 10590 10590 10591 10591 10592 10592 10593 10594 10595 10596 10597 10599 10600 10602 10604 10605 10607 10609 10612 10614 10616 10618 10620 10622 10624 10626 10627 10629 10629 10630 10631 10633 10634 10636 10637 10640 10643 10647 10649 10650 10651 10653 10654 10654 10655 10657 10659 10661 10663 10664 10664 10665 10666 10665 10666 10668 10670 10671 10672 10673 10676 10678 10680 10682 10684 10685 10685 10686 10687 10687 10687 10688 10688 10688 10689 10690
10583 10583 10583 10583 10583 10584 10584 10585 10585 10586 10586 10587 10588 10588 10588 10589 10590 10591 10592 10593 10594 10595 10597 10598 10600 10602 10604 10606 10608 10610 10612 10615 10616 10618 10620 10622 10623 10625 10626 10627 10628 10629 10631 10632 10634 10638 10642 10643 10643 10645 10646 10647 10648 10651 10653 10656 10658 10659 10660 10660 10661 10661 10660 10661 10663 10665 10667 10668 10669 10671 10673 10675 10676 10678 10679 10680 10681 10681 10681 10682 10683 10683 10683 10684 10685
10578 10578 10579 10579 10579 10579 10580 10580 10581 10581 10582 10583 10583 10584 10584 10585 10586 10586 10587 10588 10589 10590 10592 10593 10594 10596 10598 10600 10602 10604 10607 10609 10611 10613 10615 10616 10618 10619 10621 10622 10623 10625 10626 10628 10629 10633 10636 10637 10637 10638 10640 10641 10643 10646 10649 10651 10653 10654 10654 10655 10655 10656 10656 10657 10658 10660 10662 10663 10665 10666 10668 10669 10670 10672 10673 10674 10675 10676 10676 10676 10677 10678 10678 10679 10680
10572 10572 10573 10574 10574 10575 10575 10576 10576 10577 10577 10578 10578 10579 10580 10580 10581 10582 10582 10583 10584 10586 10587 10588 10589 10590 10592 10593 10595 10597 10600 10602 10604 10607 10608 10610 10612 10614 10615 10617 10618 10620 10622 10623 10624 10627 10630 10632 10633 10633 10634 10635 10637 10640 10643 10644 10646 10647 10648 10649 10650 10651 10651 10652 10653 10654 10656 10657 10659 10660 10661 10662 10664 10665 10666 10668 10669 10670 10670 10671 10672 10672 10673 10674 10675
10565 10566 10567 10568 10569 10570 10570 10571 10571 10571 10572 10572 10573 10574 10575 10575 10576 10577 10578 10579 10580 10580 10581 10582 10584 10585 10586 10588 10589 10591 10593 10595 10597 10599 10601 10603 10605 10607 10609 10610 10612 10615 10617 10618 10620 10622 10624 10626 10627 10628 10629 10629 10631 10634 10636 10638 10639 10641 10641 10643 10644 10645 10646 10646 10647 10648 10650 10651 10652 10653 10654 10655 10657 10658 10659 10661 10662 10663 10664 10665 10666 10666 10667 10668 10669
10560 10560 10561 10562 10563 10564 10564 10565 10565 10566 10566 10567 10568 10569 10570 10571 10571 10572 10572 10573 10574 10575 10576 10577 10579 10580 10581 10583 10584 10585 10587 10589 10591 10593 10595 10596 10598 10600 10601 10603 10605 10607 10610 10613 10614 10616 10618 10620 10621 10623 10623 10624 10625 10628 10629 10630 10632 10633 10635 10636 10638 10639 10639 10640 10641 10642 10643 10645 10646 10647 10648 10648 10650 10651 10652 10654 10655 10657 10658 10659 10659 10660 10661 10662 10663
10554 10554 10554 10555 10555 10556 10557 10558 10558 10559 10559 10560 10561 10562 10563 10564 10566 10567 10567 10568 10569 10570 10571 10572 10573 10575 10576 10577 10578 10580 10582 10583 10585 10587 10588 10590 10592 10593 10595 10596 10598 10600 10603 10605 10608 10609 10612 10614 10615 10616 10617 10618 10619 10621 10622 10623 10624 10626 10628 10630 10631 10632 10632 10633 10634 10635 10636 10638 10639 10640 10641 10642 10643 10644 10646 10647 10648 10649 10650 10651 10652 10653 10654 10655 10656
10547 10547 10547 10547 10547 10548 10549 10550 10551 10552 10552 10553 10554 10555 10556 10557 10559 10560 10562 10563 10564 10565 10566 10567 10568 10569 10570 10571 10573 10574 10576 10577 10579 10581 10582 10584 10585 10587 10588 10589 10591 10593 10595 10598 10600 10602 10604 10606 10608 10609 10610 10612 10613 10615 10616 10617 10618 10618 10620 10622 10624 10625 10625 10626 10626 10628 10629 10631 10632 10633 10634 10635 10636 10638 10639 10640 10641 10642 10643 10644 10645 10646 10647 10648 10649
10540 10540 10540 10539 10540 10541 10542 10543 10545 10545 10546 10546 10547 10548 10549 10550 10552 10553 10555 10556 10557 10559 10560 10561 10562 10563 10564 10565 10567 10568 10570 10571 10573 10574 10576 10577 10578 10580 10581 10582 10584 10585 10587 10589 10592 10594 10596 10597 10600 10602 10603 10604 10605 10607 10609 10610 10611 10612 10613 10615 10616 10618 10618 10619 10619 10620 10622 10623 10625 10626 10627 10628 10629 10631 10632 10633 10633 10634 10636 10637 10637 10638 10639 10640 10642
10533 10532 10532 10533 10534 10536 10537 10538 10538 10538 10539 10540 10541 10541 10542 10543 10544 10546 10547 10549 10550 10552 10553 10555 10556 10557 10558 10559 10561 10562 10563 10565 10566 10568 10569 10570 10572 10573 10574 10575 10576 10578 10579 10581 10583 10585 10587 10589 10591 10593 10594 10596 10597 10598 10600 10602 10603 10605 10606 10607 10609 10610 10611 10611 10611 10612 10614 10616 10617 10618 10620 10621 10622 10623 10624 10625 10626 10627 10628 10629 10629 10630 10631 10633 10634
10525 10525 10525 10526 10528 10530 10530 10530 10530 10531 10532 10533 10533 10534 10535 10535 10536 10537 10539 10541 10543 10545 10546 10548 10549 10551 10552 10553 10554 10555 10556 10557 10559 10561 10562 10564 10565 10566 10567 10568 10569 10571 10572 10574 10575 10577 10579 10581 10582 10584 10586 10587 10589 10590 10592 10594 10595 10596 10597 10598 10600 10601 10602 10602 10603 10604 10606 10608 10609 10610 10612 10614 10615 10616 10616 10617 10618 10619 10619 10620 10621 10622 10623 10625 10626
10516 10516 10516 10518 10520 10521 10521 10523 10524 10525 10525 10526 10526 10526 10526 10527 10528 10530 10532 10534 10536 10538 10540 10541 10542 10544 10545 10546 10547 10548 10549 10550 10552 10553 10554 10556 10557 10558 10560 10561 10562 10563 10564 10566 10567 10568 10570 10571 10573 10575 10577 10578 10580 10582 10585 10586 10587 10588 10589 10590 10591 10591 10592 10593 10594 10595 10597 10599 10600 10602 10604 10605 10607 10608 10609 10609 10610 10610 10611 10611 10612 10614 10615 10617 10618
10508 10506 10506 10508 10510 10512 10515 10517 10519 10519 10519 10519 10518 10519 10519 10520 10522 10524 10527 10528 10530 10531 10532 10533 10534 10536 10537 10538 10539 10540 10542 10543 10544 10545 10546 10547 10549 10550 10552 10553 10554 10556 10557 10558 10559 10560 10561 10562 10564 10566 10568 10569 10571 10573 10576 10578 10579 10580 10582 10582 10582 10583 10583 10584 10585 10586 10588 10590 10592 10593 10595 10596 10597 10599 10600 10601 10602 10602 10602 10602 10603 10605 10607 10608 10609
10500 10498 10498 10499 10501 10504 10507 10511 10513 10513 10513 10513 10512 10512 10512 10513 10516 10518 10521 10523 10523 10523 10524 10525 10526 10527 10529 10530 10531 10533 10534 10536 10536 10537 10538 10539 10540 10542 10544 10545 10546 10548 10549 10550 10551 10552 10553 10554 10555 10557 10559 10560 10562 10564 10567 10569 10570 10572 10573 10574 10573 10573 10575 10576 10577 10578 10580 10581 10583 10584 10585 10586 10587 10588 10590 10591 10593 10594 10595 10594 10595 10596 10598 10599 10601
10491 10491 10492 10492 10493 10494 10497 10502 10505 10505 10506 10506 10505 10505 10504 10506 10510 10512 10513 10515 10515 10516 10516 10516 10517 10519 10520 10522 10522 10524 10526 10528 10528 10528 10529 10530 10532 10534 10535 10537 10538 10540 10540 10541 10543 10544 10545 10545 10546 10548 10549 10551 10553 10555 10557 10559 10561 10562 10564 10565 10564 10564 10567 10568 10568 10569 10571 10573 10575 10576 10576 10577 10577 10578 10579 10581 10582 10585 10587 10587 10587 10587 10588 10590 10591
10483 10484 10485 10485 10486 10487 10488 10492 10495 10496 10497 10497 10496 10496 10495 10496 10500 10504 10505 10506 10507 10508 10508 10508 10509 10510 10511 10513 10513 10515 10517 10518 10519 10519 10520 10522 10524 10526 10527 10528 10530 10531 10532 10533 10534 10535 10536 10537 10537 10538 10540 10540 10542 10545 10547 10549 10551 10553 10554 10556 10555 10555 10558 10560 10559 10559 10561 10564 10566 10567 10567 10567 10568 10569 10570 10571 10572 10574 10577 10578 10578 10579 10580 10581 10582
10476 10477 10479 10479 10479 10480 10481 10483 10485 10487 10488 10487 10487 10487 10487 10488 10490 10492 10495 10496 10497 10499 10500 10500 10501 10501 10503 10504 10505 10505 10507 10509 10510 10510 10512 10514 10515 10516 10518 10519 10521 10522 10523 10524 10525 10526 10527 10528 10528 10529 10530 10530 10532 10535 10537 10538 10541 10543 10543 10545 10546 10546 10548 10550 10549 10548 10551 10554 10556 10557 10557 10558 10560 10561 10561 10561 10562 10564 10567 10568 10568 10570 10571 10572 10573
10469 10470 10471 10472 10472 10474 10474 10475 10476 10477 10478 10478 10477 10477 10478 10479 10480 10481 10483 10484 10486 10489 10490 10491 10492 10492 10493 10494 10495 10496 10498 10499 10500 10501 10503 10504 10506 10506 10508 10510 10511 10512 10513 10514 10515 10516 10517 10518 10518 10519 10521 10521 10522 10524 10526 10527 10530 10533 10533 10534 10536 10537 10538 10541 10540 10537 10539 10543 10546 10548 10547 10547 10550 10552 10551 10551 10552 10554 10556 10558 10559 10561 10562 10563 10564
10461 10462 10463 10464 10465 10466 10467 10468 10468 10469 10470 10470 10469 10469 10469 10470 10472 10472 10472 10473 10475 10477 10480 10481 10483 10483 10483 10483 10485 10487 10488 10489 10491 10492 10493 10494 10496 10497 10498 10500 10501 10502 10503 10504 10504 10505 10506 10508 10508 10509 10510 10512 10512 10512 10515 10518 10520 10522 10523 10524 10526 10528 10529 10530 10530 10527 10526 10530 10537 10540 10538 10535 10537 10542 10542 10541 10542 10543 10544 10546 10548 10550 10552 10554 10555
10453 10453 10454 10455 10456 10458 10460 10460 10460 10461 10461 10461 10461 10461 10461 10462 10463 10463 10462 10463 10465 10467 10469 10471 10472 10472 10472 10474 10477 10479 10479 10479 10481 10483 10484 10484 10486 10488 10488 10489 10490 10490 10491 10492 10493 10494 10496 10498 10499 10499 10499 10502 10503 10501 10503 10507 10510 10511 10512 10513 10514 10517 10519 10518 10519 10518 10514 10516 10525 10532 10531 10524 10523 10530 10532 10530 10530 10533 10535 10535 10537 10539 10541 10543 10544
10444 10444 10445 10446 10447 10449 10451 10453 10453 10452 10451 10451 10452 10452 10453 10454 10455 10454 10453 10454 10457 10459 10459 10459 10460 10460 10461 10464 10468 10469 10469 10469 10471 10473 10474 10474 10475 10476 10477 10477 10478 10478 10479 10479 10481 10484 10485 10487 10489 10489 10488 10490 10492 10491 10491 10495 10498 10500 10500 10502 10503 10506 10507 10507 10508 10508 10505 10504 10510 10521 10525 10517 10510 10517 10522 10518 10519 10523 10525 10525 10526 10528 10530 10531 10531
10434 10435 10436 10437 10438 10440 10442 10445 10445 10443 10441 10440 10441 10442 10444 10446 10447 10447 10446 10447 10450 10451 10449 10448 10449 10449 10450 10453 10456 10457 10458 10459 10460 10462 10462 10462 10463 10464 10465 10466 10466 10466 10466 10467 10469 10472 10473 10475 10477 10477 10477 10478 10479 10481 10480 10482 10486 10488 10489 10491 10492 10493 10495 10497 10498 10497 10494 10493 10496 10507 10516 10509 10500 10504 10510 10508 10509 10513 10514 10514 10515 10516 10519 10520 10520
10424 10425 10427 10428 10430 10431 10433 10435 10435 10433 10431 10430 10430 10432 10434 10436 10438 10439 10438 10439 10441 10441 10439 10438 10439 10440 10440 10442 10443 10444 10446 10447 10448 10449 10449 10449 10451 10452 10453 10454 10454 10454 10453 10454 10457 10460 10461 10462 10464 10465 10466 10466 10466 10468 10469 10469 10472 10475 10478 10480 10480 10480 10483 10487 10487 10485 10483 10483 10484 10492 10502 10500 10492 10493 10497 10498 10501 10504 10503 10502 10502 10503 10506 10509 10510
10412 10414 10416 10418 10420 10422 10423 10423 10422 10421 10421 10421 10421 10422 10423 10425 10426 10427 10427 10428 10428 10429 10429 10429 10430 10431 10431 10431 10432 10433 10433 10434 10435 10436 10436 10437 10439 10440 10441 10442 10441 10440 10440 10442 10445 10447 10449 10450 10451 10452 10453 10454 10454 10455 10456 10457 10458 10460 10464 10468 10467 10467 10472 10475 10475 10473 10472 10473 10472 10476 10486 10489 10484 10483 10487 10488 10490 10492 10491 10489 10489 10492 10495 10497 10499
10400 10402 10405 10407 10409 10411 10411 10410 10409 10409 10410 10411 10412 10412 10412 10413 10414 10414 10414 10415 10416 10417 10418 10419 10419 10420 10421 10422 10421 10420 10421 10422 10423 10423 10423 10424 10426 10428 10429 10429 10428 10427 10428 10430 10433 10434 10435 10436 10437 10438 10439 10440 10441 10442 10442 10443 10445 10446 10449 10453 10453 10454 10459 10462 10462 10462 10461 10461 10459 10461 10470 10476 10474 10474 10478 10478 10477 10477 10477 10477 10478 10480 10483 10485 10487
10388 10391 10394 10397 10398 10398 10397 10396 10396 10397 10398 10400 10401 10401 10401 10401 10402 10402 10401 10403 10404 10406 10407 10407 10407 10408 10410 10411 10410 10410 10410 10410 10410 10410 10410 10412 10413 10415 10415 10415 10415 10415 10416 10418 10420 10421 10422 10423 10423 10424 10425 10426 10427 10428 10429 10429 10430 10432 10434 10437 10439 10441 10444 10447 10448 10450 10451 10449 10445 10446 10454 10461 10461 10463 10466 10468 10467 10464 10462 10463 10465 10468 10470 10473 10475